Change the Weather History Date:

Thursday, September 26, 2013

  Actual Average Record
Temperature  
Mean Temperature 76 °F 74 °F  
Max Temperature 89 °F 85 °F 95 °F (1954)
Min Temperature 63 °F 63 °F 46 °F (1975)
Degree Days  
Heating Degree Days 0 0  
Month to date heating degree days 0 0  
Since 1 July heating degree days 0 0  
Cooling Degree Days 11 9  
Month to date cooling degree days 395 323  
Year to date cooling degree days 2174 2194  
Growing Degree Days 26 (Base 50)    
Moisture  
Dew Point 65 °F    
Average Humidity 72    
Maximum Humidity 100    
Minimum Humidity 43    
Precipitation  
Precipitation 0.00 in 0.12 in 3.97 in (2002)
Month to date precipitation 4.97 3.56  
Year to date precipitation 57.14 45.72  
Sea Level Pressure  
Sea Level Pressure 29.90 in    
Wind  
Wind Speed 2 mph (NNE)    
Max Wind Speed 8 mph    
Max Gust Speed -    
Visibility 9 miles    
Events      
T = Trace of Precipitation, MM = Missing Value Source: NWS Daily Summary

Daily Weather History Graph

Daily Weather History Graph

Search for Another Location

Airport or City:

Trip Planner

Search our weather history database for the weather conditions in past years. The results will help you decide how hot, cold, wet, or windy it might be!

Date:

Astronomy

Sep. 26, 2013 Rise Set
Actual Time 6:47 AM CDT 6:48 PM CDT
Civil Twilight 6:23 AM CDT 7:12 PM CDT
Nautical Twilight 5:55 AM CDT 7:40 PM CDT
Astronomical Twilight 5:27 AM CDT 8:08 PM CDT
Moon No Moon Rise 1:20 PM CDT (9/26)
Length of Visible Light 12h 48m
Length of Day
12h 00m
Waning Gibbous, 54% of the Moon is Illuminated
Sep 26
Waning Gibbous
Sep 26
Last Quarter
Oct 4
New
Oct 11
First Quarter
Oct 18
Full

Hourly Weather History & Observations

Time (CDT) Temp. Heat Index Dew Point Humidity Pressure Visibility Wind Dir Wind Speed Gust Speed Precip Events Conditions
12:53 AM 68.0 °F - 64.9 °F 90% 29.83 in 10.0 mi Calm Calm - N/A   Clear
1:53 AM 66.0 °F - 64.0 °F 93% 29.83 in 10.0 mi Calm Calm - N/A   Clear
2:53 AM 64.9 °F - 63.0 °F 93% 29.83 in 8.0 mi Calm Calm - N/A   Clear
3:53 AM 64.0 °F - 62.1 °F 93% 29.83 in 10.0 mi Calm Calm - N/A   Clear
4:53 AM 63.0 °F - 62.1 °F 97% 29.85 in 8.0 mi Calm Calm - N/A   Clear
5:53 AM 63.0 °F - 61.0 °F 93% 29.86 in 8.0 mi Calm Calm - N/A   Clear
6:53 AM 63.0 °F - 61.0 °F 93% 29.89 in 5.0 mi Calm Calm - N/A   Clear
7:53 AM 66.9 °F - 64.0 °F 90% 29.91 in 10.0 mi Calm Calm - N/A   Clear
8:53 AM 73.0 °F - 64.9 °F 76% 29.93 in 10.0 mi North 4.6 mph - N/A   Clear
9:53 AM 77.0 °F - 66.0 °F 69% 29.94 in 10.0 mi Variable 5.8 mph - N/A   Clear
10:53 AM 81.0 °F 83.8 °F 68.0 °F 65% 29.94 in 10.0 mi NW 4.6 mph - N/A   Clear
11:53 AM 82.9 °F 84.4 °F 64.0 °F 53% 29.94 in 10.0 mi Calm Calm - N/A   Clear
12:53 PM 84.9 °F 86.1 °F 64.0 °F 49% 29.92 in 10.0 mi West 5.8 mph - N/A   Clear
1:53 PM 86.0 °F 87.3 °F 64.0 °F 48% 29.90 in 10.0 mi North 8.1 mph - N/A   Clear
2:53 PM 88.0 °F 89.3 °F 64.0 °F 45% 29.89 in 10.0 mi Variable 3.5 mph - N/A   Clear
3:53 PM 87.1 °F 87.8 °F 63.0 °F 44% 29.88 in 10.0 mi Calm Calm - N/A   Partly Cloudy
4:53 PM 87.1 °F 87.8 °F 63.0 °F 44% 29.88 in 10.0 mi West 3.5 mph - N/A   Clear
5:53 PM 84.9 °F 86.6 °F 64.9 °F 51% 29.88 in 10.0 mi NNW 3.5 mph - N/A   Clear
6:53 PM 77.0 °F - 69.1 °F 76% 29.89 in 10.0 mi Calm Calm - N/A   Clear
7:53 PM 79.0 °F - 69.1 °F 72% 29.91 in 10.0 mi East 3.5 mph - N/A   Scattered Clouds
8:53 PM 78.1 °F - 70.0 °F 76% 29.94 in 10.0 mi East 3.5 mph - N/A   Mostly Cloudy
9:53 PM 75.0 °F - 70.0 °F 84% 29.96 in 10.0 mi East 3.5 mph - N/A   Mostly Cloudy
10:53 PM 73.9 °F - 70.0 °F 87% 29.96 in 9.0 mi East 5.8 mph - N/A   Partly Cloudy
11:53 PM 73.0 °F - 70.0 °F 90% 29.96 in 8.0 mi Calm Calm - N/A   Partly Cloudy